| time (UTC) | temp C | wind direction | speed KPH | gust KPH | rain 1hr cm | rain 24hr cm | rain mn cm | humidity % | barometer mb |
| 20260504151001 | 7 | 298 | 0.0 | 0.0 | 0.00 | 2.54 | 0.00 | 70 | 1010.1 |
| 20260504141001 | 8 | 302 | 0.0 | 0.0 | 0.00 | 2.92 | 2.59 | 60 | 1009.2 |
| 20260504082000 | 13 | 102 | 0.0 | 0.0 | 0.00 | 4.42 | 2.59 | 52 | 1003.1 |
| 20260504081000 | 14 | 286 | 0.0 | 0.0 | 0.00 | 4.42 | 2.59 | 51 | 1003.0 |
| 20260504050001 | 18 | 250 | 0.0 | 0.0 | 0.00 | 4.42 | 2.59 | 50 | 999.6 |
| 20260504045002 | 18 | 193 | 0.0 | 0.0 | 0.00 | 4.42 | 2.59 | 47 | 999.4 |
| 20260504044002 | 19 | 230 | 0.0 | 0.0 | 0.00 | 4.42 | 2.59 | 42 | 999.4 |
| 20260504043001 | 20 | 127 | 0.0 | 0.0 | 0.00 | 4.42 | 2.59 | 42 | 999.2 |
| 20260504042000 | 21 | 224 | 0.0 | 0.0 | 0.00 | 4.42 | 2.59 | 40 | 999.6 |
| 20260504041002 | 20 | 251 | 0.0 | 0.0 | 0.00 | 4.42 | 2.59 | 40 | 999.7 |
| 20260504040001 | 20 | 152 | 0.0 | 0.0 | 0.00 | 4.42 | 2.59 | 42 | 999.1 |
| 20260504035000 | 20 | 143 | 0.0 | 0.0 | 0.00 | 4.42 | 2.59 | 38 | 999.3 |
| 20260504034001 | 20 | 211 | 0.0 | 0.0 | 0.00 | 4.42 | 2.59 | 43 | 999.3 |
| 20260504033001 | 20 | 196 | 0.0 | 0.0 | 0.00 | 4.42 | 2.59 | 45 | 999.8 |
| 20260504032000 | 20 | 113 | 0.0 | 0.0 | 0.00 | 4.42 | 2.59 | 47 | 999.8 |
| 20260504031002 | 20 | 133 | 0.0 | 0.0 | 0.00 | 4.42 | 2.59 | 47 | 999.8 |
| 20260504030000 | 20 | 204 | 0.0 | 0.0 | 0.00 | 4.42 | 2.59 | 46 | 999.7 |
| 20260504025001 | 20 | 216 | 0.0 | 0.0 | 0.00 | 4.42 | 2.59 | 47 | 999.7 |
| 20260504024000 | 20 | 206 | 0.0 | 0.0 | 0.00 | 4.42 | 2.59 | 49 | 999.7 |
| 20260504023001 | 20 | 229 | 0.0 | 0.0 | 0.00 | 4.42 | 2.59 | 50 | 999.8 |
| 20260504022000 | 20 | 73 | 0.0 | 0.0 | 0.00 | 4.42 | 2.59 | 54 | 1000.0 |
| 20260504021001 | 19 | 123 | 0.0 | 0.0 | 0.00 | 4.42 | 2.59 | 54 | 1000.0 |
| 20260504020000 | 18 | 106 | 0.0 | 0.0 | 0.00 | 4.42 | 2.59 | 56 | 1000.4 |
| 20260504015001 | 18 | 121 | 0.0 | 0.0 | 0.00 | 4.42 | 2.59 | 62 | 1000.4 |
| 20260504014000 | 17 | 128 | 0.0 | 0.0 | 0.00 | 4.42 | 2.59 | 62 | 1000.4 |
| 20260504013001 | 17 | 144 | 0.0 | 0.0 | 0.00 | 4.42 | 2.59 | 65 | 1000.7 |
| 20260504012000 | 17 | 170 | 0.0 | 0.0 | 0.00 | 4.42 | 2.59 | 67 | 1000.7 |
| 20260504011001 | 17 | 134 | 0.0 | 0.0 | 0.00 | 4.42 | 2.59 | 70 | 1000.7 |
| 20260504010001 | 16 | 130 | 0.0 | 0.0 | 0.00 | 4.42 | 2.59 | 69 | 1000.6 |
| 20260504005001 | 16 | 208 | 0.0 | 0.0 | 0.00 | 4.42 | 2.59 | 71 | 1000.5 |
| 20260504004001 | 16 | 88 | 0.0 | 0.0 | 0.00 | 4.42 | 2.59 | 74 | 1000.5 |
| 20260504003000 | 16 | 191 | 0.0 | 0.0 | 0.00 | 4.42 | 2.59 | 77 | 1000.6 |
| 20260504002001 | 16 | 114 | 0.0 | 0.0 | 0.00 | 4.42 | 2.59 | 78 | 1000.6 |
| 20260504001000 | 16 | 238 | 0.0 | 0.0 | 0.00 | 4.42 | 2.59 | 79 | 1000.6 |
| 20260504000001 | 16 | 211 | 0.0 | 0.0 | 0.00 | 4.42 | 2.59 | 80 | 1000.6 |
| 20260503235001 | 16 | 201 | 0.0 | 0.0 | 0.00 | 4.42 | 2.59 | 81 | 1000.5 |
| 20260503234001 | 16 | 151 | 0.0 | 0.0 | 0.00 | 4.42 | 2.59 | 81 | 1000.5 |
| 20260503233001 | 16 | 150 | 0.0 | 0.0 | 0.00 | 4.42 | 2.59 | 85 | 1000.5 |
| 20260503232000 | 16 | 100 | 0.0 | 0.0 | 0.00 | 4.42 | 2.59 | 85 | 1000.3 |
| 20260503231000 | 16 | 176 | 0.0 | 0.0 | 0.00 | 4.42 | 2.59 | 86 | 1000.2 |
| 20260503230001 | 16 | 133 | 0.0 | 0.0 | 0.00 | 4.42 | 2.59 | 87 | 999.7 |
| 20260503225001 | 16 | 162 | 0.0 | 0.0 | 0.00 | 4.42 | 2.59 | 93 | 999.5 |
| 20260503224001 | 15 | 115 | 0.0 | 0.0 | 0.00 | 4.42 | 2.59 | 91 | 999.5 |
| 20260503223000 | 15 | 243 | 0.0 | 0.0 | 0.00 | 4.42 | 2.59 | 95 | 999.5 |
| 20260503222000 | 15 | 141 | 0.0 | 0.0 | 0.00 | 4.42 | 2.59 | 93 | 999.3 |
| 20260503221000 | 15 | 199 | 0.0 | 0.0 | 0.05 | 4.42 | 2.59 | 95 | 999.2 |
| 20260503220001 | 16 | 252 | 0.0 | 0.0 | 0.08 | 4.42 | 2.59 | 96 | 999.1 |
| 20260503215002 | 15 | 178 | 0.0 | 0.0 | 0.10 | 4.42 | 2.59 | 96 | 998.9 |
| 20260503214002 | 15 | 111 | 0.0 | 0.0 | 0.10 | 4.42 | 2.59 | 88 | 998.9 |
| 20260503213000 | 15 | 149 | 0.0 | 0.0 | 0.13 | 4.42 | 2.59 | 92 | 998.6 |
| 20260503212000 | 16 | 214 | 0.0 | 0.0 | 0.15 | 4.42 | 2.59 | 97 | 998.6 |
| 20260503211000 | 16 | 82 | 0.0 | 0.0 | 0.13 | 4.37 | 2.54 | 98 | 998.6 |
| 20260503210001 | 16 | 116 | 0.0 | 0.0 | 0.15 | 4.34 | 2.51 | 98 | 998.2 |
| 20260503205000 | 16 | 214 | 0.0 | 0.0 | 0.20 | 4.32 | 2.49 | 99 | 998.1 |
| 20260503204001 | 16 | 218 | 0.0 | 0.0 | 0.28 | 4.32 | 2.49 | 99 | 998.1 |
| 20260503203000 | 16 | 97 | 0.0 | 0.0 | 0.36 | 4.29 | 2.46 | 99 | 997.6 |
| 20260503202002 | 15 | 143 | 0.0 | 0.0 | 0.38 | 4.29 | 2.44 | 99 | 997.4 |
| 20260503201001 | 15 | 164 | 0.0 | 0.0 | 0.48 | 4.24 | 2.41 | 99 | 997.3 |
| 20260503200001 | 15 | 214 | 0.0 | 0.0 | 0.53 | 4.19 | 2.36 | 99 | 997.4 |
| 20260503195000 | 15 | 235 | 0.0 | 0.0 | 0.58 | 4.11 | 2.29 | 99 | 997.3 |
| 20260503194000 | 15 | 242 | 0.0 | 0.0 | 0.56 | 4.04 | 2.21 | 99 | 997.3 |
| 20260503193002 | 15 | 248 | 0.0 | 0.0 | 0.46 | 3.94 | 2.11 | 98 | 997.3 |
| 20260503192000 | 15 | 221 | 0.0 | 0.0 | 0.46 | 3.89 | 2.06 | 98 | 997.7 |
| 20260503191000 | 15 | 245 | 0.0 | 0.0 | 0.38 | 3.76 | 1.93 | 99 | 997.8 |
| 20260503190001 | 14 | 233 | 0.0 | 0.0 | 0.33 | 3.66 | 1.83 | 99 | 997.4 |
| 20260503185001 | 14 | 325 | 0.0 | 0.0 | 0.25 | 3.53 | 1.70 | 98 | 997.5 |
| 20260503184001 | 14 | 205 | 0.0 | 0.0 | 0.30 | 3.48 | 1.65 | 98 | 997.5 |
| 20260503183001 | 14 | 220 | 0.0 | 0.0 | 0.41 | 3.48 | 1.65 | 98 | 997.8 |
| 20260503182000 | 14 | 212 | 0.0 | 0.0 | 0.46 | 3.43 | 1.60 | 98 | 998.0 |
| 20260503181000 | 14 | 91 | 0.0 | 0.0 | 0.48 | 3.38 | 1.55 | 98 | 998.0 |
| 20260503180000 | 14 | 145 | 0.0 | 0.0 | 0.51 | 3.33 | 1.50 | 98 | 998.5 |
| 20260503175001 | 14 | 77 | 0.0 | 0.0 | 0.51 | 3.28 | 1.45 | 98 | 998.5 |
| 20260503174001 | 13 | 214 | 0.0 | 0.0 | 0.48 | 3.17 | 1.32 | 98 | 998.5 |
| 20260503173000 | 13 | 220 | 0.0 | 0.0 | 0.51 | 3.07 | 1.22 | 98 | 999.0 |
| 20260503172002 | 13 | 165 | 0.0 | 0.0 | 0.53 | 2.97 | 1.12 | 98 | 998.9 |
| 20260503171000 | 13 | 191 | 0.0 | 0.0 | 0.53 | 2.90 | 1.04 | 98 | 998.9 |